Regional Weather Roundup
Issued by NWS

Home | Current Version | Previous Version | Graphics & Text | Print | Product List | Glossary On
Versions: 1 2 3 4 5 6 7 8 9 10 11 12 13 14 15 16 17 18 19 20 21 22 23 24 25 26 27 28 29 30 31 32 33 34 35 36 37 38 39 40 41 42 43 44 45 46 47 48 49 50
000
ASUS43 KIND 271559
RWRIN

WEATHER ROUNDUP FOR INDIANA
NATIONAL WEATHER SERVICE INDIANAPOLIS IN
1200 PM EDT TUE SEP 27 2016

NOTE: "FAIR" INDICATES FEW OR NO CLOUDS BELOW 12,000 FEET WITH NO
SIGNIFICANT WEATHER AND/OR OBSTRUCTIONS TO VISIBILITY.

* - STATION DOES NOT REPORT WEATHER SUCH AS PRECIPITATION OR FOG.

+ - STATION NOT QUALITY CONTROLLED BY THE NATIONAL WEATHER SERVICE.
    USE DATA WITH CAUTION...ESPECIALLY DEWPOINT AND RELATIVE
    HUMIDITY OBSERVATIONS.

INZ001>003-010>013-019-020-271700-
NORTHWEST INDIANA

CITY           SKY/WX    TMP DP  RH WIND       PRES   REMARKS
GARY /AIRPORT/ MOSUNNY   66  36  32 W17G31    29.85S
KNOX *+        SUNNY     64   5   9 W14G23    29.85F
MONTICELLO +   SUNNY     68  29  23 W16G23    29.88F
RENSSELAER +   SUNNY     68  32  26 W13G18    29.87F

$$

LMZ046-743>745-271700-
SOUTHERN LAKE MICHIGAN

STATION/POSITION TIME  TEMP    WIND        PRES    WAVE
                       AIR SEA DIR/SP/G            HT
                 (UTC) (F)     (DEG/KT/KT) (MB)    (FT)
BURNS HARBOR     1500   62     230/ 15/ 25 1011.2S
MICHIGAN CITY    1500   60     210/ 23/ 25   N/A
5NW MICH CITY    1500   61 67  240/ 17/ 23   N/A     4

$$

INZ004-005-014>016-021>024-271700-
NORTH CENTRAL INDIANA

CITY           SKY/WX    TMP DP  RH WIND       PRES   REMARKS
ELKHART        SUNNY    N/A N/A N/A SW14G21   29.81F
GOSHEN         SUNNY     64  35  34 W22G28    29.83F
SOUTH BEND     SUNNY     64  35  34 W28G35    29.82F
WARSAW +       SUNNY     64  32  29 W15G21    29.85F

$$

INZ006>009-017-018-025>027-271700-
NORTHEAST INDIANA

CITY           SKY/WX    TMP DP  RH WIND       PRES   REMARKS
ANGOLA *+        N/A     64  57  77 W18       29.82F
AUBURN +       SUNNY     64  36  34 W12G21    29.85F
FORT WAYNE     MOSUNNY   67  38  34 W17G24    29.86F
KENDALLVILLE + SUNNY     64  36  35 W23G32    29.84S

$$

INZ028-029-035-036-043>045-051>053-271700-
WEST CENTRAL INDIANA

CITY           SKY/WX    TMP DP  RH WIND       PRES   REMARKS
CRAWFORDSVL +  SUNNY     66  47  49 SW8       29.92F
GREENCASTLE +  SUNNY     66  52  59 SW3       29.94F
LAFAYETTE      SUNNY     66  45  46 W10       29.89F
TERRE HAUTE    SUNNY     69  48  47 W12       29.95F

$$

INZ030>032-037>040-046>048-054>057-064-065-271700-
CENTRAL INDIANA

CITY           SKY/WX    TMP DP  RH WIND       PRES   REMARKS
ANDERSON       SUNNY     66  46  48 SW12      29.91F
COLUMBUS       SUNNY     68  50  52 W13       29.97F
INDIANAPOLIS   SUNNY     68  48  48 W13       29.93F
-EAGLE CREEK   SUNNY     68  47  46 SW9       29.92F
MT COMFORT *+  SUNNY     68  46  45 SW12      29.93F
SHELBYVILLE    SUNNY     71  45  39 W14       29.93F
ZIONSVILLE +   SUNNY     68  46  45 SW13G18   29.92F

$$

INZ033-034-041-042-049-050-058-059-271700-
EAST CENTRAL INDIANA

CITY           SKY/WX    TMP DP  RH WIND       PRES   REMARKS
MUNCIE         SUNNY     70  45  40 W12G21    29.89F

$$

INZ060-061-067>069-081>083-085>088-271700-
SOUTHWEST INDIANA

CITY           SKY/WX    TMP DP  RH WIND       PRES   REMARKS
EVANSVILLE     SUNNY     72  47  40 W8        30.02F
HUNTINGBURG *+   N/A     72  52  49 SW9       30.01F

$$

INZ062-063-066-070>080-084-089>092-271700-
SOUTH CENTRAL AND SOUTHEAST INDIANA

CITY           SKY/WX    TMP DP  RH WIND       PRES   REMARKS
BLOOMINGTON    SUNNY     69  46  43 W13G22    29.97F
MADISON *+     SUNNY     70  43  37 SW12      30.01F
SEYMOUR +      SUNNY     72  46  40 W16       29.98F

$$





USA.gov is the U.S. government's official web portal to all federal, state and local government web resources and services.